Regional Weather Roundup
Issued by NWS

Home | Current Version | Previous Version | Text Only | Print | Product List | Glossary Off
Versions: 1 2 3 4 5 6 7 8 9 10 11 12 13 14 15 16 17 18 19 20 21 22 23 24 25 26 27 28 29 30 31 32 33 34 35 36 37 38 39 40 41 42 43 44 45 46 47 48 49 50

000
ASUS45 KTFX 222004
RWRMT
MONTANA HOURLY WEATHER ROUNDUP
NATIONAL WEATHER SERVICE GREAT FALLS MT
204 PM MDT TUE APR 22 2014

NOTE: "FAIR" INDICATES FEW OR NO CLOUDS BELOW 12000 FEET WITH NO
SIGNIFICANT WEATHER AND/OR OBSTRUCTIONS TO VISIBILITY.

* THESE STATIONS ARE NOT UNDER NWS QUALITY CONTROL. THEY DO NOT
   REPORT WEATHER SUCH AS PRECIPITATION OR FOG.

MTZ001>007-043-222100-
WEST OF THE DIVIDE
CITY           SKY/WX    TMP DP  RH WIND       PRES   REMARKS
KALISPELL      LGT RAIN  55  39  55 W8        29.64S
MISSOULA       LGT RAIN  54  39  57 NW10      29.66S
BUTTE          CLOUDY    57  36  46 SW10      29.56F
MULLAN PASS    LGT SNOW  34  34 100 CALM      29.66S VSB M1/4
* ESSEX        N/A       55  31  40 SE4G11     N/A
* LINCOLN      N/A       60  34  38 W5G21      N/A
* LOOKOUT PASS N/A       41  37  86 SE1G8      N/A
* POLSON       N/A       50  39  66 S2G9       N/A
* SEELEY LAKE  N/A       53  27  37 W5G15      N/A
* THOMP F APT  CLOUDY    58  33  39 S11G31     N/A
$$

MTZ008-052>055-222100-
SOUTHWEST MONTANA
CITY           SKY/WX    TMP DP  RH WIND       PRES   REMARKS
BOZEMAN        CLOUDY    70  34  27 S14G29    29.52F
DILLON         CLOUDY    64  34  33 SE18G26   29.48F
W YELLOWSTONE  N/A       61  34  36 S6G13      N/A
* THREE FORKS  CLOUDY    72  39  30 S15G24     N/A
* BOULDER HILL N/A       60  32  35 SW14G22    N/A
* MONIDA PASS  N/A       54  36  51 S20G28     N/A
* RAYNOLDS PAS N/A       54  32  43 SE16G23    N/A
* WHITEHALL    N/A       72  37  28 SW14G21    N/A
* WISE RIVER   N/A       52  32  47 NW16G25    N/A
$$

MTZ009>010-012-014-046-048-049-054-222100-
EAST SLOPES AND CENTRAL MONTANA
CITY           SKY/WX    TMP DP  RH WIND       PRES   REMARKS
CUT BANK       PTCLDY    68  28  22 S8G23     29.50F
GREAT FALLS    CLOUDY    68  36  31 S9        29.48F
HELENA         CLOUDY    70  32  25 S13G20    29.48F
MALMSTROM AFB  CLOUDY    70  30  23 NE5       29.47F
* CONRAD       PTSUNNY   70  28  21 SE15G21    N/A
* DEARBORN     N/A       70  34  27 S4         N/A
* EAST GLACIER N/A       57  27  32 NW14G21    N/A
* MONARCH      N/A       63  27  26 S12G20     N/A
* PENDROY      N/A       66  31  27 S15G26     N/A
* ROGERS PASS  N/A       47  38  71 SE4G16     N/A
* SAINT MARY   N/A       57  25  29 S10G20     N/A
* SWEET GRASS  N/A       68  27  21 S17G22     N/A
$$

MTZ011-013-016-021-035-040-045-047-050-051-222100-
NORTH CENTRAL MONTANA
CITY           SKY/WX    TMP DP  RH WIND       PRES   REMARKS
HAVRE          PTSUNNY   75  28  18 NE8G22    29.49F
LEWISTOWN      CLOUDY    72  27  19 S10G17    29.55F
* CHESTER      N/A       69  24  18 SE8G16     N/A
* DENTON       N/A       74  36  25 SE22G30    N/A
* GEYSER       N/A       71  33  25 E11        N/A
* JUDITH GAP   N/A       65  36  34 SE20G26    N/A
* LOMA         N/A       73  31  21 NE16       N/A
$$

MTZ017>020-022>027-061-062-222100-
NORTHEAST MONTANA
CITY           SKY/WX    TMP DP  RH WIND       PRES   REMARKS
GLASGOW        PTCLDY    72  32  23 SE24G38   29.63F
JORDAN         PTSUNNY   72  36  27 E17G25    29.60F
SIDNEY         CLOUDY    72  34  25 SE17G28   29.74F
WOLF POINT     PTSUNNY   73  30  20 E20G29    29.67F
* BEAVER HILL  N/A       68  32  26 E28G39     N/A
* CIRCLE       N/A       67  38  35 E11G18     N/A
* LINDSAY DVD  N/A       68  32  26 E24G30     N/A
* NAVAJO       N/A       68  28  22 SE21G30    N/A
* SACO         N/A       72  33  24 E22G29     N/A
$$

MTZ028>042-056>058-222100-
SOUTHCENTRAL AND SOUTHEAST MONTANA
CITY           SKY/WX    TMP DP  RH WIND       PRES   REMARKS
BAKER          SUNNY     70  34  27 SE25G33   29.72F
BILLINGS       PTSUNNY   70  41  35 E5        29.59F
LIVINGSTON     PTSUNNY   66  37  34 E7        29.57F
MILES CITY     LGT RAIN  75  37  25 S20       29.62F
* LAUREL APT   PTCLDY    66  37  34 N/A        N/A
* ROUNDUP APT  PTCLDY    70  34  27 S7         N/A
* HYSHAM       N/A       74  38  27 S4         N/A
* LAME DEER    N/A       68  34  28 SE9G14     N/A
* REED POINT   N/A       70  43  38 E14        N/A
* ROSCOE HILL  N/A       67  31  26 E20G25     N/A
$$

REGIONAL REPORTS...DAKOTAS
CITY           SKY/WX    TMP DP  RH WIND       PRES   REMARKS
WILLISTON      CLOUDY    70  28  21 SE23G28   29.77F
DICKINSON      PTSUNNY   70  28  21 SE31G39   29.77F
CROSBY         SUNNY     66  28  24 SE24G31   29.82F
TIOGA          SUNNY     66  27  23 SE24G35   29.85F
WATFORD CITY   SUNNY     68  28  22 SE26G36   29.77F
BISMARCK       PTSUNNY   70  28  21 S24G31    29.88F
GRAND FORKS    PTCLDY    59  34  39 S5        30.04F
FARGO          SUNNY     63  34  34 E7        30.04F
BUFFALO SD     PTSUNNY   68  34  28 E22G29    29.67F
RAPID CITY     PTSUNNY   75  39  27 S16G25    29.69F
$$

REGIONAL REPORTS...WYOMING/IDAHO/WASHINGTON
CITY           SKY/WX    TMP DP  RH WIND       PRES   REMARKS
GILLETTE       CLOUDY    70  41  35 S14       29.70F
SHERIDAN       PTSUNNY   70  36  29 VRB5      29.66F
CODY           PTSUNNY   66  34  31 SE9G20    29.64F
YELLOWSTONE LA PTSUNNY   48  30  50 VRB5      29.76F
SALMON         CLOUDY    48  43  83 W7        29.63R
MULLAN PASS    LGT SNOW  34  34 100 CALM      29.66S VSB M1/4
SPOKANE        CLOUDY    45  39  80 SW20      29.70S

$$




USA.gov is the U.S. government's official web portal to all federal, state and local government web resources and services.